Regional Weather Roundup
Issued by NWS

Home | Current Version | Previous Version | Graphics & Text | Print | Product List | Glossary On
Versions: 1 2 3 4 5 6 7 8 9 10 11 12 13 14 15 16 17 18 19 20 21 22 23 24 25 26 27
000
ASUS45 KCYS 230810
RWRWY

WYOMING REGIONAL WEATHER ROUNDUP
NATIONAL WEATHER SERVICE CHEYENNE WY
200 AM MDT MON OCT 23 2017

NOTE:  "FAIR" INDICATES FEW OR NO CLOUDS BELOW 12,000 FEET
WITH NO SIGNIFICANT WEATHER AND/OR OBSTRUCTIONS TO VISIBILITY.

WYZ001-230900-
YELLOWSTONE NATIONAL PARK

CITY           SKY/WX    TMP DP  RH WIND       PRES   REMARKS
LK YELLOWSTONE   N/A     31  19  61 VRB5      30.44R WCI  26
W YELLOWSTONE  NOT AVBL

$$
WYZ002>013-054>058-071-098>099-230900-
NORTHERN WYOMING

CITY           SKY/WX    TMP DP  RH WIND       PRES   REMARKS
JACKSON        FAIR      44  30  57 W17G28    30.37R
CODY           FAIR      46  20  35 NW10G18   30.27R
GREYBULL       FAIR      50  19  29 N22       30.21R
WORLAND        MOCLDY    40  28  62 SW3       30.25R
SHERIDAN       FAIR      46  23  40 NW21      30.21R
BUFFALO        FAIR      42  21  43 N12       30.22R
GILLETTE       FAIR      45  19  35 NW25G33   30.17R
HULETT         FAIR      46  21  36 NW15G22   30.15R
NEWCASTLE      FAIR      46  19  34 NW18G31   30.15R

$$
WYZ014>020-022>026-101>103-230900-
CENTRAL WYOMING

CITY           SKY/WX    TMP DP  RH WIND       PRES   REMARKS
BIG PINEY      MOCLDY    46  29  51 N8        30.41R
PINEDALE       CLOUDY    41  32  70 NW12      30.40R
DUBOIS         CLOUDY    37  32  81 NW17G25   30.29S WCI  28
LANDER         FAIR      47  31  53 VRB3      30.24R
RIVERTON       MOCLDY    47  33  58 N20       30.25R
CASPER         CLOUDY    45  35  68 NE7       30.23R
DOUGLAS        LGT RAIN  45  33  63 N10       30.23R

$$
WYZ021-027>030-104>119-230900-
SOUTHERN WYOMING

CITY           SKY/WX    TMP DP  RH WIND       PRES   REMARKS
EVANSTON       FAIR      47  31  53 W12       30.47R
KEMMERER       FAIR      45  32  61 W20G33    30.43R
FORT BRIDGER   PTSUNNY   49  31  50 W12G23    30.48R
ROCK SPRINGS   FAIR      46  28  49 W25G31    30.39R
DIXON          PTSUNNY   51  29  41 SW14G23   30.40S
RAWLINS        FAIR      48  28  46 W31G44    30.29R
SARATOGA       FAIR      46  30  53 W21G30    30.34F
LARAMIE        FAIR      46  27  47 W17G31    30.28R
CHEYENNE       FAIR      54  28  36 NW30G41   30.20S
TORRINGTON     CLOUDY    53  33  46 N20G32    30.15R
PINE BLUFFS    FAIR      55  28  35 W25G31    30.16R

$$




USA.gov is the U.S. government's official web portal to all federal, state and local government web resources and services.